| time (UTC) | temp F | wind direction | speed MPH | gust MPH | rain 1hr in | rain 24hr in | rain mn in | humidity % | barometer mb |
| 20260902124343 | 62 | 292 | 1.0 | 2.0 | 0.01 | 0.25 | 0.25 | 97 | 1013.3 |
| 20260902123848 | 62 | 316 | 0.0 | 2.0 | 0.01 | 0.25 | 0.25 | 97 | 1013.5 |
| 20260902123412 | 62 | 319 | 1.0 | 2.0 | 0.01 | 0.25 | 0.25 | 97 | 1013.4 |
| 20260902122900 | 62 | 298 | 0.0 | 1.0 | 0.01 | 0.25 | 0.25 | 97 | 1013.7 |
| 20260902122419 | 62 | 307 | 0.0 | 2.0 | 0.01 | 0.25 | 0.25 | 97 | 1013.5 |
| 20260902121844 | 62 | 296 | 0.0 | 1.0 | 0.01 | 0.25 | 0.25 | 97 | 1013.4 |
| 20260902120846 | 62 | 213 | 0.0 | 2.0 | 0.01 | 0.25 | 0.25 | 97 | 1012.9 |
| 20260902115849 | 62 | 279 | 0.0 | 0.0 | 0.00 | 0.24 | 0.24 | 97 | 1012.2 |
| 20260902115409 | 62 | 279 | 0.0 | 2.0 | 0.02 | 0.24 | 0.24 | 97 | 1012.1 |
| 20260902114837 | 62 | 279 | 0.0 | 2.0 | 0.03 | 0.24 | 0.24 | 97 | 1012.0 |
| 20260902114406 | 62 | 278 | 0.0 | 0.0 | 0.04 | 0.24 | 0.24 | 97 | 1011.8 |
| 20260902113825 | 62 | 279 | 0.0 | 0.0 | 0.05 | 0.24 | 0.24 | 97 | 1011.4 |
| 20260902113351 | 62 | 278 | 0.0 | 0.0 | 0.06 | 0.24 | 0.24 | 97 | 1011.5 |
| 20260902112915 | 62 | 278 | 0.0 | 1.0 | 0.08 | 0.24 | 0.24 | 97 | 1011.3 |
| 20260902112337 | 62 | 278 | 0.0 | 1.0 | 0.10 | 0.24 | 0.24 | 97 | 1010.9 |
| 20260902111908 | 62 | 278 | 0.0 | 1.0 | 0.12 | 0.24 | 0.24 | 97 | 1010.5 |
| 20260902111330 | 62 | 278 | 0.0 | 1.0 | 0.14 | 0.24 | 0.24 | 96 | 1010.8 |
| 20260902110838 | 62 | 278 | 0.0 | 1.0 | 0.17 | 0.24 | 0.24 | 96 | 1011.0 |
| 20260902110341 | 62 | 278 | 0.0 | 1.0 | 0.19 | 0.24 | 0.24 | 96 | 1011.0 |
| 20260902105909 | 62 | 278 | 0.0 | 1.0 | 0.20 | 0.24 | 0.24 | 96 | 1010.6 |
| 20260902105326 | 62 | 44 | 0.0 | 1.0 | 0.19 | 0.22 | 0.22 | 96 | 1010.4 |
| 20260902104836 | 63 | 89 | 0.0 | 1.0 | 0.19 | 0.21 | 0.21 | 96 | 1011.0 |
| 20260902104409 | 63 | 95 | 0.0 | 4.0 | 0.18 | 0.20 | 0.20 | 95 | 1013.2 |
| 20260902103826 | 63 | 75 | 0.0 | 5.0 | 0.18 | 0.19 | 0.19 | 95 | 1014.9 |
| 20260902103348 | 63 | 326 | 0.0 | 8.0 | 0.17 | 0.17 | 0.17 | 95 | 1015.6 |
| 20260902102917 | 63 | 299 | 2.0 | 8.0 | 0.15 | 0.15 | 0.15 | 95 | 1016.2 |
| 20260902102335 | 63 | 300 | 1.0 | 3.0 | 0.14 | 0.14 | 0.14 | 95 | 1016.0 |
| 20260902101859 | 63 | 282 | 1.0 | 3.0 | 0.12 | 0.12 | 0.12 | 95 | 1015.7 |
| 20260902101401 | 63 | 292 | 1.0 | 3.0 | 0.08 | 0.08 | 0.10 | 95 | 1015.7 |
| 20260902100342 | 64 | 321 | 1.0 | 3.0 | 0.05 | 0.05 | 0.05 | 95 | 1015.9 |
| 20260902095345 | 64 | 276 | 0.0 | 2.0 | 0.03 | 0.03 | 0.03 | 95 | 1015.5 |
| 20260902094912 | 64 | 298 | 0.0 | 1.0 | 0.02 | 0.02 | 0.02 | 95 | 1015.2 |
| 20260902094421 | 64 | 296 | 0.0 | 3.0 | 0.02 | 0.02 | 0.02 | 96 | 1014.7 |
| 20260902093849 | 64 | 296 | 0.0 | 3.0 | 0.01 | 0.01 | 0.01 | 96 | 1014.1 |
| 20260902092846 | 63 | 290 | 0.0 | 1.0 | 0.00 | 0.00 | 0.00 | 97 | 1013.6 |
| 20260902092354 | 63 | 290 | 0.0 | 1.0 | 0.00 | 0.00 | 0.00 | 97 | 1013.3 |
| 20260902091920 | 63 | 290 | 0.0 | 0.0 | 0.00 | 0.00 | 0.00 | 97 | 1013.1 |
| 20260902091342 | 63 | 290 | 0.0 | 0.0 | 0.00 | 0.00 | 0.00 | 97 | 1013.0 |
| 20260902090915 | 63 | 290 | 0.0 | 0.0 | 0.00 | 0.00 | 0.00 | 97 | 1012.8 |
| 20260902090344 | 63 | 290 | 0.0 | 0.0 | 0.00 | 0.00 | 0.00 | 97 | 1012.6 |
| 20260902085910 | 63 | 290 | 0.0 | 1.0 | 0.00 | 0.00 | 0.00 | 97 | 1012.5 |
| 20260902085333 | 63 | 290 | 0.0 | 1.0 | 0.00 | 0.00 | 0.00 | 97 | 1012.2 |
| 20260902084342 | 63 | 290 | 0.0 | 0.0 | 0.00 | 0.00 | 0.00 | 97 | 1011.9 |
| 20260902083833 | 63 | 290 | 0.0 | 1.0 | 0.00 | 0.00 | 0.00 | 97 | 1011.7 |
| 20260902083356 | 63 | 290 | 0.0 | 1.0 | 0.00 | 0.00 | 0.00 | 97 | 1011.9 |
| 20260902082905 | 63 | 290 | 0.0 | 0.0 | 0.00 | 0.00 | 0.00 | 97 | 1012.0 |
| 20260902082322 | 63 | 290 | 0.0 | 0.0 | 0.00 | 0.00 | 0.00 | 97 | 1012.0 |
| 20260902081845 | 63 | 290 | 0.0 | 0.0 | 0.00 | 0.00 | 0.00 | 97 | 1011.9 |
| 20260902080843 | 63 | 290 | 0.0 | 0.0 | 0.00 | 0.00 | 0.00 | 97 | 1011.9 |
| 20260902075833 | 63 | 290 | 0.0 | 0.0 | 0.00 | 0.00 | 0.00 | 96 | 1011.9 |
| 20260902075357 | 63 | 290 | 0.0 | 0.0 | 0.00 | 0.00 | 0.00 | 96 | 1011.7 |
| 20260902074921 | 63 | 290 | 0.0 | 0.0 | 0.00 | 0.00 | 0.00 | 96 | 1011.6 |
| 20260902074329 | 63 | 290 | 0.0 | 0.0 | 0.00 | 0.00 | 0.00 | 96 | 1011.7 |
| 20260902073859 | 63 | 290 | 0.0 | 0.0 | 0.00 | 0.00 | 0.00 | 96 | 1011.7 |
| 20260902073427 | 63 | 290 | 0.0 | 0.0 | 0.00 | 0.00 | 0.00 | 96 | 1011.6 |
| 20260902072833 | 63 | 290 | 0.0 | 0.0 | 0.00 | 0.00 | 0.00 | 95 | 1011.6 |
| 20260902072357 | 63 | 290 | 0.0 | 0.0 | 0.00 | 0.00 | 0.00 | 95 | 1011.5 |
| 20260902071921 | 64 | 290 | 0.0 | 0.0 | 0.00 | 0.00 | 0.00 | 95 | 1011.4 |
| 20260902071345 | 64 | 290 | 0.0 | 0.0 | 0.00 | 0.00 | 0.00 | 95 | 1011.6 |
| 20260902070904 | 64 | 290 | 0.0 | 0.0 | 0.00 | 0.00 | 0.00 | 95 | 1011.5 |
| 20260902070407 | 64 | 290 | 0.0 | 0.0 | 0.00 | 0.00 | 0.00 | 95 | 1011.7 |
| 20260902065859 | 65 | 290 | 0.0 | 0.0 | 0.00 | 0.00 | 0.00 | 94 | 1012.0 |
| 20260902065330 | 65 | 290 | 0.0 | 0.0 | 0.00 | 0.00 | 0.00 | 94 | 1011.8 |
| 20260902064837 | 65 | 290 | 0.0 | 0.0 | 0.00 | 0.00 | 0.00 | 94 | 1012.0 |
| 20260902064322 | 66 | 290 | 0.0 | 0.0 | 0.00 | 0.00 | 0.00 | 93 | 1012.1 |
| 20260902063848 | 66 | 290 | 0.0 | 0.0 | 0.00 | 0.00 | 0.00 | 93 | 1012.0 |